TimeWET,TemperatureF,Dew PointF,Humidity,Sea Level PressureIn,VisibilityMPH,Wind Direction,Wind SpeedMPH,Gust SpeedMPH,PrecipitationIn,Events,Conditions,WindDirDegrees,DateUTC
12:00 AM,55,45,60,29.89,6,West,9.2,,,,Clear,270,2013-04-03 00:00:00
12:00 AM,55.4,44.6,67,29.89,-9999.0,West,9.2,-,N/A,,Clear,270,2013-04-03 00:00:00
12:30 AM,53.6,44.6,72,29.89,-9999.0,West,6.9,-,N/A,,Clear,260,2013-04-03 00:30:00
1:00 AM,55.4,46.4,72,29.89,-9999.0,SW,5.8,-,N/A,,Clear,220,2013-04-03 01:00:00
1:30 AM,55.4,44.6,67,29.89,-9999.0,South,6.9,-,N/A,,Clear,180,2013-04-03 01:30:00
2:00 AM,55.4,46.4,72,29.86,-9999.0,South,8.1,-,N/A,,Clear,170,2013-04-03 02:00:00
2:30 AM,57.2,46.4,67,29.86,-9999.0,South,5.8,-,N/A,,Clear,170,2013-04-03 02:30:00
3:00 AM,57,44,53,29.83,6,SSE,5.8,,,,,150,2013-04-03 03:00:00
3:00 AM,57.2,44.6,63,29.86,-9999.0,SSE,5.8,-,N/A,,Clear,150,2013-04-03 03:00:00
3:30 AM,57.2,44.6,63,29.83,-9999.0,SSE,2.3,-,N/A,,Clear,160,2013-04-03 03:30:00
4:00 AM,55.4,44.6,67,29.83,-9999.0,Calm,Calm,-,N/A,,Clear,0,2013-04-03 04:00:00
4:30 AM,53.6,44.6,72,29.83,-9999.0,Calm,Calm,-,N/A,,Clear,0,2013-04-03 04:30:00
5:00 AM,55.4,44.6,67,29.83,-9999.0,ESE,5.8,-,N/A,,Clear,120,2013-04-03 05:00:00
5:30 AM,57.2,42.8,59,29.80,-9999.0,ESE,6.9,-,N/A,,Clear,120,2013-04-03 05:30:00
6:00 AM,55,43,53,29.80,6,ENE,3.5,,,,,70,2013-04-03 06:00:00
6:00 AM,55.4,42.8,63,29.80,-9999.0,Variable,2.3,-,N/A,,Clear,0,2013-04-03 06:00:00
6:30 AM,53.6,42.8,67,29.80,6.2,Variable,2.3,-,N/A,,Partly Cloudy,0,2013-04-03 06:30:00
7:00 AM,53.6,44.6,72,29.80,6.2,Calm,Calm,-,N/A,,Partly Cloudy,0,2013-04-03 07:00:00
7:30 AM,59.0,44.6,59,29.80,6.2,East,3.5,-,N/A,,Partly Cloudy,80,2013-04-03 07:30:00
8:00 AM,60.8,44.6,55,29.80,6.2,Calm,Calm,-,N/A,,Partly Cloudy,0,2013-04-03 08:00:00
8:30 AM,60.8,44.6,55,29.80,6.2,Calm,Calm,-,N/A,,Mostly Cloudy,0,2013-04-03 08:30:00
9:00 AM,60,47,51,29.81,6,Calm,Calm,,,,Scattered Clouds,,2013-04-03 09:00:00
9:00 AM,60.8,46.4,59,29.83,6.2,Calm,Calm,-,N/A,,Mostly Cloudy,0,2013-04-03 09:00:00
9:30 AM,60.8,46.4,59,29.83,6.2,WNW,12.7,-,N/A,,Mostly Cloudy,300,2013-04-03 09:30:00
10:00 AM,59.0,50.0,72,29.86,6.2,WNW,12.7,-,N/A,,Mostly Cloudy,300,2013-04-03 10:00:00
10:30 AM,59.0,53.6,82,29.86,6.2,West,11.5,-,N/A,,Mostly Cloudy,270,2013-04-03 10:30:00
11:00 AM,59.0,53.6,82,29.86,3.7,West,11.5,-,N/A,,Mostly Cloudy,280,2013-04-03 11:00:00
11:30 AM,59.0,55.4,88,29.86,5.0,WSW,6.9,-,N/A,,Mostly Cloudy,250,2013-04-03 11:30:00
12:00 PM,62,50,56,29.81,6,WSW,5.8,,,,Partly Cloudy,250,2013-04-03 12:00:00
12:00 PM,62.6,50.0,63,29.83,6.2,WSW,5.8,-,N/A,,Scattered Clouds,250,2013-04-03 12:00:00
12:30 PM,64.4,46.4,52,29.83,6.2,West,11.5,-,N/A,,Scattered Clouds,260,2013-04-03 12:30:00
1:00 PM,68.0,46.4,46,29.80,6.2,West,13.8,-,N/A,,Scattered Clouds,280,2013-04-03 13:00:00
1:30 PM,68.0,44.6,43,29.80,6.2,West,19.6,31.1,N/A,,Scattered Clouds,270,2013-04-03 13:30:00
1:42 PM,69.8,44.6,40,29.80,6.2,West,19.6,32.2,N/A,,Scattered Clouds,280,2013-04-03 13:42:00
2:00 PM,69.8,44.6,40,29.77,5.0,West,20.7,32.2,N/A,,Scattered Clouds,280,2013-04-03 14:00:00
2:30 PM,71.6,42.8,35,29.77,5.0,West,21.9,-,N/A,,Scattered Clouds,280,2013-04-03 14:30:00
2:47 PM,71,43,25,29.70,5,West,26.5,,,,Mostly Cloudy,280,2013-04-03 14:47:00
2:50 PM,71.6,42.8,35,29.77,5.0,WNW,27.6,43.7,N/A,,Partly Cloudy,290,2013-04-03 14:50:00
3:00 PM,71.6,42.8,35,29.74,5.0,West,26.5,43.7,N/A,,Partly Cloudy,280,2013-04-03 15:00:00
3:30 PM,69.8,44.6,40,29.74,5.0,West,28.8,41.4,N/A,,Partly Cloudy,280,2013-04-03 15:30:00
4:00 PM,71.6,41.0,33,29.74,5.0,West,31.1,44.9,N/A,,Partly Cloudy,280,2013-04-03 16:00:00
4:30 PM,69.8,41.0,35,29.74,5.0,West,28.8,-,N/A,,Partly Cloudy,270,2013-04-03 16:30:00
4:44 PM,68.0,41.0,37,29.74,5.0,West,34.5,46.0,N/A,,Partly Cloudy,270,2013-04-03 16:44:00
5:00 PM,68.0,41.0,37,29.74,5.0,West,34.5,46.0,N/A,,Partly Cloudy,270,2013-04-03 17:00:00
5:30 PM,66.2,46.4,49,29.77,5.0,WNW,28.8,-,N/A,,Partly Cloudy,290,2013-04-03 17:30:00
5:32 PM,66.2,48.2,52,29.77,5.0,WNW,26.5,38.0,N/A,,Partly Cloudy,290,2013-04-03 17:32:00
5:48 PM,64,47,44,29.74,5,WNW,28.8,,,,Mostly Cloudy,290,2013-04-03 17:48:00
6:00 PM,64.4,48.2,56,29.77,5.0,WNW,27.6,-,N/A,,Partly Cloudy,290,2013-04-03 18:00:00
6:30 PM,62.6,46.4,55,29.77,5.0,West,26.5,38.0,N/A,,Partly Cloudy,280,2013-04-03 18:30:00
7:00 PM,60.8,46.4,59,29.77,5.0,WNW,27.6,39.1,N/A,,Partly Cloudy,290,2013-04-03 19:00:00
7:30 PM,57.2,46.4,67,29.77,5.0,WNW,24.2,-,N/A,,Partly Cloudy,300,2013-04-03 19:30:00
7:32 PM,57.2,46.4,67,29.80,5.0,WNW,16.1,-,N/A,,Partly Cloudy,290,2013-04-03 19:32:00
7:40 PM,57.2,46.4,67,29.80,5.0,WNW,18.4,31.1,N/A,,Partly Cloudy,290,2013-04-03 19:40:00
7:57 PM,55.4,46.4,72,29.80,5.0,WNW,24.2,35.7,N/A,,Partly Cloudy,290,2013-04-03 19:57:00
8:00 PM,55.4,46.4,72,29.80,5.0,WNW,23.0,-,N/A,,Partly Cloudy,290,2013-04-03 20:00:00
8:30 PM,57.2,44.6,63,29.80,6.2,West,28.8,-,N/A,,Partly Cloudy,280,2013-04-03 20:30:00
9:00 PM,56,45,56,29.81,6,West,21.9,,,,Mostly Cloudy,280,2013-04-03 21:00:00
9:00 PM,57.2,44.6,63,29.83,6.2,West,23.0,-,N/A,,Partly Cloudy,280,2013-04-03 21:00:00
9:30 PM,55.4,44.6,67,29.83,6.2,West,16.1,-,N/A,,Partly Cloudy,270,2013-04-03 21:30:00
10:00 PM,55.4,44.6,67,29.80,6.2,WNW,15.0,-,N/A,,Scattered Clouds,290,2013-04-03 22:00:00
10:30 PM,57.2,44.6,63,29.80,6.2,WNW,17.3,-,N/A,,Scattered Clouds,290,2013-04-03 22:30:00
11:00 PM,55.4,46.4,72,29.80,6.2,West,11.5,-,N/A,,Scattered Clouds,260,2013-04-03 23:00:00
11:30 PM,55.4,44.6,67,29.80,6.2,West,13.8,-,N/A,,Scattered Clouds,270,2013-04-03 23:30:00